2016-04-15 00:01:08 r, 15.93m,0000000037Hz,0000012235c,0000000.027s, 027.7C,00002195
2016-04-15 00:11:08 r, 15.83m,0000000041Hz,0000011254c,0000000.024s, 027.7C,00002195
2016-04-15 00:21:08 r, 15.99m,0000000035Hz,0000012986c,0000000.028s, 027.7C,00002195
2016-04-15 00:31:09 r, 15.86m,0000000040Hz,0000011467c,0000000.025s, 027.7C,00002195
2016-04-15 00:41:08 r, 15.66m,0000000048Hz,0000009569c,0000000.021s, 027.3C,00002195
2016-04-15 00:51:08 r, 15.67m,0000000048Hz,0000009622c,0000000.021s, 027.3C,00002195
2016-04-15 01:01:08 r, 15.57m,0000000053Hz,0000008872c,0000000.019s, 027.3C,00002195
2016-04-15 01:11:08 r, 15.60m,0000000050Hz,0000009149c,0000000.020s, 027.3C,00002195
2016-04-15 01:21:08 r, 15.72m,0000000046Hz,0000010137c,0000000.022s, 026.4C,00002195
2016-04-15 01:31:08 r, 15.72m,0000000046Hz,0000010159c,0000000.022s, 025.7C,00002195
2016-04-15 01:41:09 r, 16.19m,0000000029Hz,0000015674c,0000000.034s, 025.4C,00002195
2016-04-15 01:51:08 r, 16.55m,0000000021Hz,0000021830c,0000000.047s, 025.1C,00002195
2016-04-15 02:01:09 r, 16.82m,0000000016Hz,0000028021c,0000000.061s, 025.1C,00002195
2016-04-15 02:11:09 r, 17.02m,0000000013Hz,0000033700c,0000000.073s, 025.1C,00002195
2016-04-15 02:21:08 r, 16.08m,0000000033Hz,0000014084c,0000000.031s, 025.4C,00002195
2016-04-15 02:31:08 r, 16.29m,0000000026Hz,0000017246c,0000000.037s, 025.4C,00002195
2016-04-15 02:41:08 r, 16.42m,0000000024Hz,0000019313c,0000000.042s, 025.4C,00002195
2016-04-15 02:51:08 r, 16.35m,0000000025Hz,0000018111c,0000000.039s, 025.4C,00002195
2016-04-15 03:01:08 r, 16.56m,0000000021Hz,0000021928c,0000000.048s, 025.4C,00002195
2016-04-15 03:11:11 r, 17.14m,0000000012Hz,0000037452c,0000000.081s, 025.1C,00002195
2016-04-15 03:21:08 r, 16.39m,0000000025Hz,0000018911c,0000000.041s, 025.1C,00002195
2016-04-15 03:31:11 r, 17.54m,0000000009Hz,0000053779c,0000000.117s, 025.1C,00002195
2016-04-15 03:41:09 r, 17.73m,0000000007Hz,0000064251c,0000000.139s, 025.1C,00002195
2016-04-15 03:51:08 r, 17.59m,0000000008Hz,0000056708c,0000000.123s, 025.1C,00002195
2016-04-15 04:01:11 r, 17.39m,0000000010Hz,0000047100c,0000000.102s, 025.1C,00002195
2016-04-15 04:11:09 r, 17.57m,0000000009Hz,0000055614c,0000000.121s, 024.8C,00002195
2016-04-15 04:21:08 r, 17.75m,0000000007Hz,0000065391c,0000000.142s, 024.8C,00002195
2016-04-15 04:31:08 r, 17.80m,0000000007Hz,0000068868c,0000000.149s, 024.8C,00002195
2016-04-15 04:41:09 r, 16.90m,0000000016Hz,0000030000c,0000000.065s, 024.4C,00002195
2016-04-15 04:51:08 r, 16.31m,0000000026Hz,0000017453c,0000000.038s, 024.4C,00002195
2016-04-15 05:01:09 r, 16.63m,0000000020Hz,0000023412c,0000000.051s, 024.4C,00002195
2016-04-15 05:11:09 r, 16.37m,0000000025Hz,0000018308c,0000000.040s, 024.8C,00002195
2016-04-15 05:21:08 r, 16.62m,0000000020Hz,0000023167c,0000000.050s, 024.4C,00002195
2016-04-15 05:31:11 r, 16.50m,0000000022Hz,0000020798c,0000000.045s, 024.4C,00002195
2016-04-15 05:41:09 r, 16.30m,0000000026Hz,0000017407c,0000000.038s, 024.4C,00002195
2016-04-15 05:51:08 r, 15.11m,0000000079Hz,0000005764c,0000000.013s, 024.4C,00002195
2016-04-15 06:01:08 r, 13.30m,0000000426Hz,0000000000c,0000000.000s, 024.1C,00002195
2016-04-15 06:11:08 r, 11.34m,0000002602Hz,0000000000c,0000000.000s, 024.1C,00002195
2016-04-15 06:21:08 r, 09.56m,0000013339Hz,0000000000c,0000000.000s, 023.8C,00002195
2016-04-15 06:31:08 r, 08.26m,0000044332Hz,0000000000c,0000000.000s, 023.8C,00002195
2016-04-15 06:41:10 r, 07.32m,0000104999Hz,0000000000c,0000000.000s, 024.1C,00002195
2016-04-15 06:51:08 r, 06.48m,0000228083Hz,0000000000c,0000000.000s, 023.8C,00002195
2016-04-15 07:01:09 r, 00.00m,0000428377Hz,0000000000c,0000000.000s, 024.1C,00002195
2016-04-15 07:11:11 r, 00.00m,0000563571Hz,0000000000c,0000000.000s, 024.1C,00002195
2016-04-15 07:21:08 r, 00.00m,0000563500Hz,0000000000c,0000000.000s, 024.1C,00002195
2016-04-15 07:31:10 r, 00.00m,0000563615Hz,0000000000c,0000000.000s, 024.4C,00002195
2016-04-15 07:41:09 r, 00.00m,0000563717Hz,0000000000c,0000000.000s, 024.8C,00002195
2016-04-15 07:51:08 r, 00.00m,0000563689Hz,0000000000c,0000000.000s, 025.1C,00002195
2016-04-15 08:01:08 r, 00.00m,0000563801Hz,0000000000c,0000000.000s, 025.7C,00002195
2016-04-15 08:11:08 r, 00.00m,0000563833Hz,0000000000c,0000000.000s, 026.1C,00002195
2016-04-15 08:21:08 r, 00.00m,0000563780Hz,0000000000c,0000000.000s, 026.4C,00002195
2016-04-15 08:31:09 r, 00.00m,0000563927Hz,0000000000c,0000000.000s, 026.7C,00002195
2016-04-15 08:41:09 r, 00.00m,0000563943Hz,0000000000c,0000000.000s, 027.0C,00002195
2016-04-15 08:51:08 r, 00.00m,0000563958Hz,0000000000c,0000000.000s, 027.3C,00002195
2016-04-15 09:01:08 r, 00.00m,0000564058Hz,0000000000c,0000000.000s, 028.0C,00002195
2016-04-15 09:11:09 r, 00.00m,0000564136Hz,0000000000c,0000000.000s, 028.3C,00002195
2016-04-15 09:21:08 r, 00.00m,0000564263Hz,0000000000c,0000000.000s, 029.6C,00002195
2016-04-15 09:31:08 r, 00.00m,0000564255Hz,0000000000c,0000000.000s, 030.2C,00002195
2016-04-15 09:41:11 r, 00.00m,0000564218Hz,0000000000c,0000000.000s, 030.6C,00002195
2016-04-15 09:51:08 r, 00.00m,0000564429Hz,0000000000c,0000000.000s, 030.9C,00002195
2016-04-15 10:01:11 r, 00.00m,0000564371Hz,0000000000c,0000000.000s, 030.9C,00002195
2016-04-15 10:11:09 r, 00.00m,0000564405Hz,0000000000c,0000000.000s, 030.9C,00002195
2016-04-15 10:21:08 r, 00.00m,0000564313Hz,0000000000c,0000000.000s, 031.2C,00002195
2016-04-15 10:31:11 r, 00.00m,0000564314Hz,0000000000c,0000000.000s, 030.9C,00002195
2016-04-15 10:41:09 r, 00.00m,0000564249Hz,0000000000c,0000000.000s, 030.2C,00002195
2016-04-15 10:51:08 r, 00.00m,0000564171Hz,0000000000c,0000000.000s, 029.6C,00002195
2016-04-15 11:01:10 r, 00.00m,0000564270Hz,0000000000c,0000000.000s, 029.9C,00002195
2016-04-15 11:11:09 r, 00.00m,0000564242Hz,0000000000c,0000000.000s, 029.9C,00002195
2016-04-15 11:21:08 r, 00.00m,0000564186Hz,0000000000c,0000000.000s, 030.2C,00002195
2016-04-15 11:31:08 r, 00.00m,0000564270Hz,0000000000c,0000000.000s, 030.6C,00002195
2016-04-15 11:41:11 r, 00.00m,0000564276Hz,0000000000c,0000000.000s, 030.2C,00002195
2016-04-15 11:51:08 r, 00.00m,0000564342Hz,0000000000c,0000000.000s, 030.6C,00002195
2016-04-15 12:01:09 r, 00.00m,0000564309Hz,0000000000c,0000000.000s, 030.6C,00002195
2016-04-15 12:11:08 r, 00.00m,0000564344Hz,0000000000c,0000000.000s, 030.6C,00002195
2016-04-15 12:21:08 r, 00.00m,0000564231Hz,0000000000c,0000000.000s, 030.6C,00002195
2016-04-15 12:31:08 r, 00.00m,0000564266Hz,0000000000c,0000000.000s, 030.2C,00002195
2016-04-15 12:41:09 r, 00.00m,0000564282Hz,0000000000c,0000000.000s, 030.2C,00002195
2016-04-15 12:51:08 r, 00.00m,0000564159Hz,0000000000c,0000000.000s, 029.6C,00002195
2016-04-15 13:01:08 r, 00.00m,0000564132Hz,0000000000c,0000000.000s, 029.0C,00002195
2016-04-15 13:11:08 r, 00.00m,0000564148Hz,0000000000c,0000000.000s, 028.3C,00002195
2016-04-15 13:21:08 r, 00.00m,0000564104Hz,0000000000c,0000000.000s, 028.0C,00002195
2016-04-15 13:31:08 r, 00.00m,0000564078Hz,0000000000c,0000000.000s, 028.0C,00002195
2016-04-15 13:41:08 r, 00.00m,0000564096Hz,0000000000c,0000000.000s, 028.0C,00002195
2016-04-15 13:51:08 r, 00.00m,0000563957Hz,0000000000c,0000000.000s, 027.7C,00002195
2016-04-15 14:01:08 r, 00.00m,0000564057Hz,0000000000c,0000000.000s, 027.7C,00002195
2016-04-15 14:11:11 r, 00.00m,0000564064Hz,0000000000c,0000000.000s, 027.7C,00002195
2016-04-15 14:21:08 r, 00.00m,0000564108Hz,0000000000c,0000000.000s, 028.0C,00002195
2016-04-15 14:31:08 r, 00.00m,0000564032Hz,0000000000c,0000000.000s, 027.7C,00002195
2016-04-15 14:41:10 r, 00.00m,0000563944Hz,0000000000c,0000000.000s, 027.3C,00002195
2016-04-15 14:51:08 r, 00.00m,0000563958Hz,0000000000c,0000000.000s, 027.0C,00002195
2016-04-15 15:01:08 r, 00.00m,0000563897Hz,0000000000c,0000000.000s, 026.7C,00002195
2016-04-15 15:11:09 r, 00.00m,0000563929Hz,0000000000c,0000000.000s, 026.4C,00002195
2016-04-15 15:21:08 r, 00.00m,0000563886Hz,0000000000c,0000000.000s, 026.4C,00002195
2016-04-15 15:31:08 r, 00.00m,0000563898Hz,0000000000c,0000000.000s, 026.1C,00002195
2016-04-15 15:41:09 r, 00.00m,0000563910Hz,0000000000c,0000000.000s, 026.1C,00002195
2016-04-15 15:51:08 r, 00.00m,0000563854Hz,0000000000c,0000000.000s, 026.1C,00002195
2016-04-15 16:01:08 r, 00.00m,0000563865Hz,0000000000c,0000000.000s, 026.1C,00002195
2016-04-15 16:11:08 r, 00.00m,0000563812Hz,0000000000c,0000000.000s, 025.7C,00002195
2016-04-15 16:21:08 r, 00.00m,0000563824Hz,0000000000c,0000000.000s, 025.7C,00002195
2016-04-15 16:31:08 r, 00.00m,0000563957Hz,0000000000c,0000000.000s, 025.7C,00002195
2016-04-15 16:41:09 r, 00.00m,0000563744Hz,0000000000c,0000000.000s, 026.1C,00002195
2016-04-15 16:51:08 r, 00.00m,0000563811Hz,0000000000c,0000000.000s, 026.1C,00002195
2016-04-15 17:01:11 r, 00.00m,0000563829Hz,0000000000c,0000000.000s, 026.1C,00002195
2016-04-15 17:11:08 r, 00.00m,0000563863Hz,0000000000c,0000000.000s, 025.7C,00002195
2016-04-15 17:21:08 r, 00.00m,0000563816Hz,0000000000c,0000000.000s, 025.7C,00002195
2016-04-15 17:31:08 r, 00.00m,0000563743Hz,0000000000c,0000000.000s, 025.4C,00002195
2016-04-15 17:41:10 r, 00.00m,0000563792Hz,0000000000c,0000000.000s, 025.4C,00002195
2016-04-15 17:51:08 r, 00.00m,0000563762Hz,0000000000c,0000000.000s, 024.8C,00002195
2016-04-15 18:01:08 r, 00.00m,0000411881Hz,0000000000c,0000000.000s, 024.1C,00002195
2016-04-15 18:11:11 r, 00.00m,0000556274Hz,0000000000c,0000000.000s, 023.8C,00002195
2016-04-15 18:21:08 r, 00.00m,0000563578Hz,0000000000c,0000000.000s, 023.5C,00002195
2016-04-15 18:31:08 r, 00.00m,0000463011Hz,0000000000c,0000000.000s, 022.8C,00002195
2016-04-15 18:41:11 r, 00.00m,0000423180Hz,0000000000c,0000000.000s, 022.5C,00002195
2016-04-15 18:51:09 r, 05.93m,0000377986Hz,0000000000c,0000000.000s, 022.2C,00002195
2016-04-15 19:01:08 r, 05.99m,0000360181Hz,0000000000c,0000000.000s, 022.2C,00002195
2016-04-15 19:11:10 r, 06.03m,0000345896Hz,0000000000c,0000000.000s, 021.5C,00002195
2016-04-15 19:21:08 r, 06.29m,0000274267Hz,0000000000c,0000000.000s, 021.2C,00002195
2016-04-15 19:31:09 r, 06.36m,0000253999Hz,0000000000c,0000000.000s, 020.9C,00002195
2016-04-15 19:41:10 r, 06.71m,0000183794Hz,0000000000c,0000000.000s, 020.6C,00002195
2016-04-15 19:51:09 r, 07.07m,0000132675Hz,0000000000c,0000000.000s, 020.6C,00002195
2016-04-15 20:01:08 r, 07.13m,0000125486Hz,0000000000c,0000000.000s, 020.3C,00002195
2016-04-15 20:11:10 r, 07.79m,0000068221Hz,0000000000c,0000000.000s, 020.3C,00002195
2016-04-15 20:21:08 r, 08.69m,0000029651Hz,0000000000c,0000000.000s, 020.3C,00002195
2016-04-15 20:31:08 r, 10.17m,0000007604Hz,0000000000c,0000000.000s, 020.3C,00002195
2016-04-15 20:41:08 r, 11.76m,0000001765Hz,0000000000c,0000000.000s, 019.9C,00002195
2016-04-15 20:51:09 r, 13.55m,0000000339Hz,0000000000c,0000000.000s, 019.9C,00002195
2016-04-15 21:01:08 r, 14.60m,0000000128Hz,0000000000c,0000000.000s, 019.9C,00002195
2016-04-15 21:11:08 r, 14.87m,0000000098Hz,0000004638c,0000000.010s, 019.9C,00002195
2016-04-15 21:21:10 r, 15.07m,0000000084Hz,0000005540c,0000000.012s, 019.9C,00002195
2016-04-15 21:31:08 r, 15.19m,0000000075Hz,0000006231c,0000000.014s, 019.9C,00002195
2016-04-15 21:41:08 r, 15.00m,0000000087Hz,0000005211c,0000000.011s, 019.9C,00002195
2016-04-15 21:51:11 r, 14.90m,0000000096Hz,0000004784c,0000000.010s, 019.9C,00002195
2016-04-15 22:01:08 r, 14.95m,0000000090Hz,0000005020c,0000000.011s, 019.9C,00002195
2016-04-15 22:11:10 r, 14.96m,0000000091Hz,0000005055c,0000000.011s, 019.9C,00002195
2016-04-15 22:21:09 r, 14.97m,0000000089Hz,0000005119c,0000000.011s, 019.6C,00002195
2016-04-15 22:31:08 r, 15.07m,0000000083Hz,0000005556c,0000000.012s, 019.6C,00002195
2016-04-15 22:41:11 r, 15.06m,0000000083Hz,0000005527c,0000000.012s, 019.6C,00002195
2016-04-15 22:51:08 r, 15.09m,0000000083Hz,0000005632c,0000000.012s, 019.6C,00002195
2016-04-15 23:01:08 r, 15.07m,0000000081Hz,0000005578c,0000000.012s, 019.6C,00002195
2016-04-15 23:11:08 r, 15.17m,0000000075Hz,0000006064c,0000000.013s, 019.6C,00002195
2016-04-15 23:21:09 r, 15.20m,0000000076Hz,0000006244c,0000000.014s, 019.6C,00002195
2016-04-15 23:31:08 r, 15.17m,0000000075Hz,0000006066c,0000000.013s, 019.6C,00002195
2016-04-15 23:41:08 r, 15.27m,0000000070Hz,0000006677c,0000000.014s, 019.6C,00002195
2016-04-15 23:51:09 r, 15.39m,0000000062Hz,0000007475c,0000000.016s, 019.6C,00002195
